| time (UTC) | temp F | wind direction | speed MPH | gust MPH | rain 1hr in | rain 24hr in | rain mn in | humidity % | barometer mb |
| 20260904164529 | 57 | 319 | 1.0 | 5.0 | 0.00 | 0.01 | 0.00 | 86 | 1016.4 |
| 20260904163032 | 56 | 305 | 2.0 | 5.0 | 0.00 | 0.01 | 0.00 | 88 | 1016.4 |
| 20260904161641 | 55 | 291 | 1.0 | 3.0 | 0.00 | 0.01 | 0.00 | 90 | 1016.4 |
| 20260904154609 | 53 | 171 | 0.0 | 3.0 | 0.00 | 0.01 | 0.00 | 93 | 1016.3 |
| 20260904153035 | 52 | 172 | 2.0 | 4.0 | 0.00 | 0.01 | 0.00 | 94 | 1016.3 |
| 20260904150029 | 50 | 247 | 0.0 | 1.0 | 0.00 | 0.01 | 0.00 | 95 | 1015.9 |
| 20260904144544 | 49 | 247 | 0.0 | 1.0 | 0.00 | 0.01 | 0.00 | 94 | 1015.7 |
| 20260904144536 | 48 | 271 | 1.0 | 3.0 | 0.00 | 0.01 | 0.00 | 94 | 1015.6 |
| 20260904141535 | 48 | 213 | 0.0 | 2.0 | 0.00 | 0.02 | 0.00 | 94 | 1015.5 |
| 20260904140032 | 48 | 202 | 0.0 | 0.0 | 0.00 | 0.02 | 0.00 | 94 | 1015.4 |
| 20260904131530 | 48 | 292 | 0.0 | 1.0 | 0.00 | 0.02 | 0.00 | 94 | 1014.8 |
| 20260904130144 | 48 | 292 | 1.0 | 3.0 | 0.00 | 0.02 | 0.00 | 94 | 1014.7 |
| 20260904124641 | 48 | 216 | 0.0 | 3.0 | 0.00 | 0.02 | 0.00 | 94 | 1014.7 |
| 20260904123143 | 48 | 202 | 0.0 | 0.0 | 0.00 | 0.02 | 0.00 | 94 | 1014.8 |
| 20260904121532 | 48 | 202 | 0.0 | 2.0 | 0.00 | 0.02 | 0.00 | 94 | 1014.7 |
| 20260904120032 | 48 | 202 | 0.0 | 3.0 | 0.00 | 0.02 | 0.00 | 94 | 1014.6 |
| 20260904114536 | 48 | 163 | 0.0 | 2.0 | 0.00 | 0.02 | 0.00 | 94 | 1014.4 |
| 20260904113031 | 48 | 157 | 0.0 | 0.0 | 0.00 | 0.02 | 0.00 | 94 | 1014.3 |
| 20260904111530 | 48 | 179 | 0.0 | 3.0 | 0.00 | 0.02 | 0.00 | 93 | 1014.2 |
| 20260904110029 | 48 | 208 | 0.0 | 2.0 | 0.00 | 0.02 | 0.00 | 93 | 1014.1 |
| 20260904104533 | 48 | 225 | 0.0 | 1.0 | 0.00 | 0.02 | 0.00 | 93 | 1014.0 |
| 20260904101536 | 47 | 247 | 1.0 | 4.0 | 0.00 | 0.02 | 0.00 | 93 | 1013.7 |
| 20260904100035 | 46 | 192 | 2.0 | 4.0 | 0.00 | 0.02 | 0.00 | 93 | 1013.6 |
| 20260904094537 | 45 | 219 | 1.0 | 3.0 | 0.00 | 0.02 | 0.00 | 93 | 1013.6 |
| 20260904091535 | 46 | 202 | 0.0 | 2.0 | 0.00 | 0.02 | 0.00 | 93 | 1013.5 |
| 20260904083111 | 46 | 202 | 0.0 | 2.0 | 0.00 | 0.02 | 0.00 | 92 | 1013.4 |
| 20260904081642 | 46 | 185 | 2.0 | 3.0 | 0.00 | 0.02 | 0.00 | 92 | 1013.4 |
| 20260904080033 | 46 | 202 | 1.0 | 4.0 | 0.00 | 0.02 | 0.00 | 92 | 1013.5 |
| 20260904074530 | 46 | 200 | 1.0 | 4.0 | 0.00 | 0.02 | 0.00 | 92 | 1013.4 |
| 20260904073037 | 46 | 194 | 1.0 | 4.0 | 0.01 | 0.02 | 0.00 | 92 | 1013.3 |
| 20260904071535 | 46 | 173 | 0.0 | 3.0 | 0.01 | 0.02 | 0.00 | 91 | 1013.4 |
| 20260904070034 | 46 | 228 | 1.0 | 3.0 | 0.01 | 0.02 | 0.00 | 91 | 1013.3 |
| 20260904064529 | 46 | 187 | 2.0 | 6.0 | 0.01 | 0.02 | 0.01 | 91 | 1013.3 |
| 20260904063033 | 47 | 240 | 1.0 | 4.0 | 0.00 | 0.01 | 0.01 | 90 | 1013.1 |
| 20260904061534 | 48 | 292 | 0.0 | 3.0 | 0.00 | 0.01 | 0.01 | 90 | 1013.0 |
| 20260904060032 | 49 | 262 | 0.0 | 2.0 | 0.00 | 0.01 | 0.01 | 90 | 1013.0 |
| 20260904054531 | 50 | 220 | 0.0 | 2.0 | 0.00 | 0.01 | 0.01 | 90 | 1013.0 |
| 20260904053031 | 51 | 198 | 2.0 | 4.0 | 0.00 | 0.01 | 0.01 | 90 | 1013.2 |
| 20260904050142 | 51 | 194 | 2.0 | 4.0 | 0.00 | 0.01 | 0.01 | 90 | 1013.1 |
| 20260904044529 | 51 | 244 | 0.0 | 1.0 | 0.00 | 0.01 | 0.01 | 89 | 1013.1 |
| 20260904043031 | 51 | 201 | 1.0 | 5.0 | 0.00 | 0.01 | 0.01 | 89 | 1013.2 |
| 20260904041609 | 51 | 162 | 0.0 | 5.0 | 0.00 | 0.01 | 0.01 | 88 | 1013.3 |
| 20260904040111 | 51 | 211 | 0.0 | 3.0 | 0.00 | 0.01 | 0.01 | 87 | 1013.4 |
| 20260904033033 | 52 | 202 | 2.0 | 5.0 | 0.00 | 0.01 | 0.01 | 86 | 1013.1 |
| 20260904031641 | 53 | 202 | 0.0 | 3.0 | 0.00 | 0.02 | 0.01 | 85 | 1012.9 |
| 20260904030111 | 53 | 202 | 0.0 | 1.0 | 0.00 | 0.04 | 0.01 | 84 | 1012.8 |
| 20260904024610 | 53 | 208 | 2.0 | 5.0 | 0.00 | 0.04 | 0.01 | 82 | 1012.8 |
| 20260904023144 | 54 | 208 | 3.0 | 8.0 | 0.00 | 0.04 | 0.01 | 80 | 1012.5 |
| 20260904021529 | 55 | 327 | 1.0 | 4.0 | 0.00 | 0.04 | 0.01 | 77 | 1012.4 |
| 20260904014641 | 56 | 247 | 0.0 | 4.0 | 0.00 | 0.04 | 0.01 | 72 | 1012.5 |
| 20260904013036 | 57 | 273 | 1.0 | 5.0 | 0.00 | 0.04 | 0.01 | 70 | 1012.2 |
| 20260904011652 | 57 | 288 | 3.0 | 8.0 | 0.00 | 0.04 | 0.01 | 69 | 1012.1 |
| 20260904010148 | 59 | 285 | 4.0 | 10.0 | 0.00 | 0.04 | 0.01 | 67 | 1012.0 |
| 20260904004532 | 60 | 283 | 6.0 | 13.0 | 0.00 | 0.04 | 0.01 | 66 | 1012.0 |
| 20260904003033 | 60 | 274 | 7.0 | 15.0 | 0.00 | 0.04 | 0.01 | 66 | 1012.0 |
| 20260904000033 | 63 | 295 | 6.0 | 15.0 | 0.00 | 0.04 | 0.01 | 57 | 1011.8 |
| 20260903234644 | 65 | 304 | 4.0 | 11.0 | 0.00 | 0.04 | 0.01 | 52 | 1011.8 |
| 20260903231532 | 67 | 312 | 5.0 | 11.0 | 0.00 | 0.04 | 0.01 | 47 | 1011.7 |
| 20260903230144 | 68 | 14 | 2.0 | 7.0 | 0.00 | 0.04 | 0.01 | 44 | 1011.7 |
| 20260903224530 | 69 | 200 | 5.0 | 12.0 | 0.00 | 0.04 | 0.01 | 40 | 1011.9 |
| 20260903223029 | 71 | 163 | 4.0 | 10.0 | 0.00 | 0.04 | 0.01 | 39 | 1012.0 |
| 20260903221535 | 72 | 158 | 6.0 | 15.0 | 0.00 | 0.04 | 0.01 | 40 | 1012.1 |
| 20260903220140 | 69 | 144 | 6.0 | 14.0 | 0.00 | 0.04 | 0.01 | 42 | 1012.3 |
| 20260903213109 | 70 | 175 | 6.0 | 16.0 | 0.00 | 0.04 | 0.01 | 43 | 1012.4 |
| 20260903211537 | 71 | 211 | 4.0 | 13.0 | 0.00 | 0.04 | 0.01 | 46 | 1012.2 |
| 20260903210036 | 69 | 201 | 6.0 | 18.0 | 0.00 | 0.04 | 0.01 | 43 | 1012.3 |
| 20260903204531 | 68 | 169 | 11.0 | 20.0 | 0.00 | 0.04 | 0.01 | 44 | 1012.5 |
| 20260903203032 | 67 | 173 | 10.0 | 17.0 | 0.00 | 0.04 | 0.01 | 46 | 1012.6 |
| 20260903201529 | 66 | 175 | 10.0 | 19.0 | 0.00 | 0.04 | 0.01 | 48 | 1012.8 |
| 20260903200030 | 65 | 179 | 11.0 | 18.0 | 0.00 | 0.04 | 0.01 | 53 | 1013.1 |
| 20260903194532 | 63 | 190 | 10.0 | 18.0 | 0.00 | 0.04 | 0.01 | 63 | 1013.3 |
| 20260903193110 | 60 | 150 | 6.0 | 13.0 | 0.00 | 0.04 | 0.01 | 81 | 1013.6 |
| 20260903191533 | 58 | 15 | 2.0 | 6.0 | 0.00 | 0.04 | 0.01 | 88 | 1013.9 |
| 20260903190031 | 57 | 331 | 2.0 | 7.0 | 0.00 | 0.04 | 0.01 | 89 | 1014.0 |
| 20260903184532 | 57 | 315 | 4.0 | 10.0 | 0.00 | 0.04 | 0.01 | 90 | 1014.0 |
| 20260903183035 | 57 | 320 | 5.0 | 11.0 | 0.00 | 0.04 | 0.01 | 90 | 1014.0 |
| 20260903181534 | 57 | 317 | 4.0 | 10.0 | 0.00 | 0.04 | 0.01 | 92 | 1014.0 |
| 20260903180032 | 56 | 298 | 2.0 | 7.0 | 0.00 | 0.04 | 0.01 | 93 | 1014.0 |
| 20260903174534 | 55 | 284 | 3.0 | 7.0 | 0.00 | 0.04 | 0.01 | 94 | 1013.9 |
| 20260903173036 | 54 | 300 | 3.0 | 5.0 | 0.00 | 0.04 | 0.01 | 95 | 1014.0 |
| 20260903171536 | 54 | 317 | 4.0 | 8.0 | 0.00 | 0.04 | 0.01 | 95 | 1014.0 |
| 20260903170109 | 53 | 294 | 3.0 | 7.0 | 0.00 | 0.04 | 0.01 | 95 | 1014.1 |